1507150801.27,27229,12.69,73584.8,-1.05,-10.71,-7.77,0,*68
1507150802.52,27230,12.69,73582.3,-1.05,-10.63,-7.87,0,*6C
1507150803.78,27231,12.75,73578.3,-1.07,-10.67,-7.95,0,*68
1507150805.04,27232,12.69,73576.8,-1.07,-10.67,-8.03,0,*6B
1507150806.29,27233,12.69,73576.3,-1.07,-10.79,-8.03,0,*65
1507150807.54,27234,12.69,73580.8,-1.05,-10.85,-8.03,0,*63
1507150808.8,27235,12.69,73580.5,-1.07,-10.79,-8.07,0,*67
1507150810.03,27236,12.75,73586.0,-1.07,-10.89,-8.07,0,*6B
1507150811.27,27237,12.69,73586.3,-1.07,-10.89,-8.07,0,*6A
1507150812.48,27238,12.69,73592.0,-1.07,-10.93,-8.21,0,*6A
1507150813.71,27239,12.75,73596.0,-1.05,-10.97,-8.17,0,*68
1507150814.93,27240,12.75,73598.0,-1.05,-11.11,-8.29,0,*64
1507150816.13,27241,12.69,73594.0,-1.07,-11.19,-8.45,0,*65
1507150817.35,27242,12.69,73592.3,-1.05,-11.15,-8.41,0,*6C
1507150818.56,27243,12.69,73604.8,-1.07,-11.23,-8.45,0,*6E
1507150819.81,27244,12.75,73602.5,-1.05,-11.15,-8.51,0,*6B
1507150821.04,27245,12.69,73604.3,-1.07,-11.37,-8.59,0,*60
1507150822.26,27246,12.69,73604.5,-1.05,-11.41,-8.59,0,*60
1507150823.49,27247,12.69,73602.0,-1.05,-11.45,-8.59,0,*65
1507150824.7,27248,12.69,73598.5,-1.07,-11.45,-8.71,0,*62
1507150825.92,27249,12.75,73608.5,-1.07,-11.51,-8.71,0,*66
1507150827.15,27250,12.69,73596.0,-1.07,-11.51,-8.71,0,*6E
1507150828.42,27251,12.69,73588.0,-1.05,-11.67,-8.81,0,*67
1507150829.64,27252,12.75,73582.5,-1.07,-11.73,-8.97,0,*64
1507150830.9,27253,12.69,73564.0,-1.05,-11.67,-8.85,0,*61
1507150832.13,27254,12.69,73544.0,-1.07,-11.73,-8.97,0,*62
1507150833.36,27255,12.69,73544.5,-1.07,-11.77,-9.01,0,*69
1507150834.62,27256,12.69,73534.3,-1.07,-11.97,-9.11,0,*65
1507150835.82,27257,12.69,73542.3,-1.07,-12.03,-9.23,0,*6B
1507150837.07,27258,12.69,73536.0,-1.05,-11.93,-8.97,0,*62
1507150838.33,27259,12.69,73552.5,-1.07,-11.89,-9.11,0,*65
1507150839.54,27260,12.75,73568.5,-1.07,-12.03,-9.27,0,*6B
1507150840.79,27261,12.69,73574.5,-1.05,-11.97,-9.27,0,*66
1507150842.02,27262,12.69,73578.3,-1.07,-12.03,-9.37,0,*68
1507150843.25,27263,12.69,73588.0,-1.07,-12.03,-9.45,0,*6C
1507150844.53,27264,12.69,73588.8,-1.05,-12.11,-9.53,0,*6D
1507150845.79,27265,12.69,73584.3,-1.05,-12.53,-9.79,0,*62
1507150847.01,27266,12.75,73592.0,-1.05,-12.43,-9.75,0,*6C
1507150848.27,27267,12.69,73594.8,-1.05,-12.53,-9.93,0,*64
1507150849.52,27268,12.69,73594.8,-1.05,-12.65,-10.05,0,*59
1507150850.76,27269,12.69,73586.5,-1.07,-12.83,-10.23,0,*56
1507150852.02,27270,12.69,73584.3,-1.05,-12.79,-10.31,0,*5A
1507150853.26,27271,12.69,73568.8,-1.05,-12.93,-10.45,0,*5C
1507150854.49,27272,12.69,73576.8,-1.07,-13.01,-10.53,0,*50
1507150855.73,27273,12.75,73584.5,-1.05,-13.11,-10.57,0,*56
1507150856.98,27274,12.75,73580.8,-1.05,-13.15,-10.71,0,*51
1507150858.23,27275,12.69,73582.0,-1.05,-13.29,-10.85,0,*54
1507150859.49,27276,12.69,73590.5,-1.05,-13.37,-11.01,0,*55
1507150860.73,27277,12.75,73598.0,-1.05,-13.51,-11.19,0,*5D
1507150861.99,27278,12.75,73604.0,-1.05,-13.55,-11.29,0,*55
1507150863.22,27279,12.75,73600.8,-1.05,-13.65,-11.41,0,*59
1507150864.46,27280,12.75,73578.0,-1.05,-13.69,-11.45,0,*57
1507150865.72,27281,12.75,73580.0,-1.05,-13.69,-11.55,0,*57
1507150867.01,27282,12.75,73580.8,-1.05,-13.97,-11.67,0,*54
1507150868.3,27283,12.75,73588.0,-1.05,-14.01,-11.93,0,*56
1507150869.56,27284,12.75,73574.5,-1.05,-14.11,-11.85,0,*57
1507150870.83,27285,12.69,73578.3,-1.05,-14.11,-11.93,0,*51
1507150872.07,27286,12.75,73578.8,-1.07,-14.19,-12.15,0,*55
1507150873.31,27287,12.69,73580.5,-1.07,-14.43,-12.21,0,*5C
1507150874.57,27288,12.75,73586.8,-1.05,-14.51,-12.25,0,*56
1507150875.84,27289,12.75,73582.3,-1.07,-14.55,-12.35,0,*50
1507150877.13,27290,12.75,73570.5,-1.05,-14.55,-12.57,0,*5E
1507150878.36,27291,12.75,73582.3,-1.07,-14.89,-12.57,0,*5C
1507150879.62,27292,12.75,73570.3,-1.05,-14.89,-12.57,0,*5D
1507150880.9,27293,12.69,73580.8,-1.05,-15.01,-12.71,0,*59
1507150882.15,27294,12.69,73582.3,-1.05,-15.15,-12.65,0,*5E
1507150883.39,27295,12.69,73582.8,-1.07,-15.35,-12.89,0,*5D
1507150884.63,27296,12.75,73586.8,-1.07,-15.43,-12.89,0,*5F
1507150885.86,27297,12.69,73584.3,-1.05,-15.53,-12.93,0,*56
1507150887.07,27298,12.69,73586.3,-1.07,-15.63,-12.97,0,*5C
1507150888.31,27299,12.75,73588.0,-1.07,-15.75,-13.01,0,*54
1507150889.54,27300,12.75,73588.5,-1.07,-15.95,-13.01,0,*5B
1507150890.8,27301,12.75,73590.5,-1.07,-16.17,-13.01,0,*53
1507150892.05,27302,12.69,73584.8,-1.07,-16.31,-13.01,0,*54
1507150893.28,27303,12.69,73582.8,-1.07,-16.31,-13.15,0,*50
1507150894.49,27304,12.75,73586.8,-1.07,-16.37,-13.07,0,*52
1507150895.7,27305,12.75,73588.5,-1.07,-16.59,-13.07,0,*5B
1507150896.93,27306,12.75,73586.5,-1.07,-16.65,-13.07,0,*57
1507150898.14,27307,12.75,73590.5,-1.07,-16.83,-13.15,0,*5D
1507150899.35,27308,12.69,73588.5,-1.07,-16.97,-13.07,0,*54
1507150900.58,27309,12.75,73598.3,-1.07,-17.11,-13.15,0,*59
1507150901.81,27310,12.69,73594.0,-1.11,-17.11,-13.15,0,*56
1507150903.04,27311,12.75,73598.0,-1.11,-17.21,-13.07,0,*57
1507150904.3,27312,12.75,73596.5,-1.13,-17.45,-13.11,0,*53
1507150905.56,27313,12.75,73592.5,-1.11,-17.41,-13.01,0,*55
1507150906.82,27314,12.75,73592.8,-1.13,-17.55,-13.07,0,*53
1507150908.05,27315,12.75,73592.8,-1.11,-17.49,-13.01,0,*5B
1507150909.28,27316,12.75,73594.0,-1.11,-17.63,-12.89,0,*51
1507150910.52,27317,12.75,73592.3,-1.13,-17.69,-12.89,0,*58
1507150911.75,27318,12.75,73592.5,-1.13,-17.73,-12.89,0,*5C
1507150913.03,27319,12.75,73588.5,-1.13,-17.79,-12.79,0,*58
1507150914.29,27320,12.75,73586.0,-1.13,-17.87,-12.65,0,*5E
1507150915.57,27321,12.69,73588.0,-1.13,-17.93,-12.65,0,*5A
1507150916.86,27322,12.69,73590.8,-1.13,-17.93,-12.53,0,*5C
1507150918.12,27323,12.75,73588.5,-1.13,-18.01,-12.47,0,*5C
1507150919.36,27324,12.75,73588.0,-1.11,-17.87,-12.35,0,*5D
1507150920.65,27325,12.75,73594.3,-1.13,-18.01,-12.35,0,*5F
1507150921.94,27326,12.75,73596.3,-1.13,-17.93,-12.35,0,*58
1507150923.2,27327,12.75,73596.5,-1.13,-18.01,-12.25,0,*5C
1507150924.47,27328,12.69,73596.0,-1.13,-17.93,-12.21,0,*53
1507150925.7,27329,12.69,73598.8,-1.13,-18.07,-12.21,0,*50
1507150926.99,27330,12.69,73604.8,-1.13,-18.01,-12.11,0,*5D
1507150928.26,27331,12.75,73604.0,-1.13,-18.07,-12.11,0,*5A
1507150929.49,27332,12.69,73602.3,-1.13,-18.07,-12.03,0,*5A
1507150930.76,27333,12.75,73598.5,-1.15,-18.01,-11.93,0,*51
1507150932.02,27334,12.75,73606.3,-1.15,-17.93,-11.89,0,*59
1507150933.26,27335,12.75,73612.8,-1.15,-17.87,-11.77,0,*5C
1507150934.52,27336,12.75,73620.3,-1.15,-17.79,-11.67,0,*5F
1507150935.76,27337,12.69,73592.5,-1.15,-17.73,-11.63,0,*50
1507150937.0,27338,12.75,73590.3,-1.15,-17.69,-11.55,0,*51
1507150938.23,27339,12.75,73592.5,-1.15,-17.69,-11.51,0,*54
1507150939.49,27340,12.75,73584.8,-1.15,-17.59,-11.51,0,*59
1507150940.75,27341,12.69,73588.3,-1.15,-17.55,-11.51,0,*54
1507150941.99,27342,12.75,73588.8,-1.15,-17.55,-11.41,0,*56
1507150943.21,27343,12.75,73588.5,-1.17,-17.59,-11.45,0,*5D
1507150944.42,27344,12.75,73576.5,-1.15,-17.31,-11.41,0,*52
1507150945.68,27345,12.75,73576.5,-1.15,-17.25,-11.37,0,*57
1507150946.94,27346,12.75,73582.0,-1.15,-17.25,-11.37,0,*54
1507150948.19,27347,12.75,73580.0,-1.17,-17.21,-11.33,0,*57
1507150949.44,27348,12.75,73584.3,-1.17,-17.17,-11.33,0,*5D
1507150950.68,27349,12.75,73578.8,-1.15,-16.97,-11.29,0,*5C
1507150951.89,27350,12.69,73576.0,-1.15,-16.97,-11.19,0,*57
1507150953.12,27351,12.75,73572.3,-1.17,-17.03,-11.23,0,*51
1507150954.32,27352,12.75,73564.0,-1.17,-16.89,-11.15,0,*54
1507150955.55,27353,12.75,73572.8,-1.15,-16.69,-11.11,0,*5D
1507150956.76,27354,12.75,73572.5,-1.17,-16.75,-11.01,0,*54
1507150957.97,27355,12.75,73572.5,-1.17,-16.59,-10.97,0,*55
1507150959.18,27356,12.75,73584.0,-1.15,-16.41,-10.85,0,*5E
1507150960.39,27357,12.75,73586.5,-1.17,-16.45,-10.97,0,*5A
1507150961.62,27358,12.75,73584.5,-1.15,-16.27,-10.93,0,*57
1507150962.89,27359,12.75,73572.5,-1.15,-16.13,-10.71,0,*5D
1507150964.16,27360,12.75,73570.8,-1.15,-16.13,-10.79,0,*5F
1507150965.4,27361,12.69,73568.3,-1.15,-16.13,-10.93,0,*5A
1507150966.64,27362,12.75,73568.3,-1.17,-16.13,-10.97,0,*5F
1507150967.9,27363,12.75,73572.0,-1.15,-15.85,-10.71,0,*58
1507150969.15,27364,12.75,73568.8,-1.17,-15.81,-10.71,0,*59
1507150970.41,27365,12.75,73570.3,-1.15,-15.81,-10.79,0,*52
1507150971.68,27366,12.75,73572.5,-1.13,-15.85,-10.93,0,*57
1507150972.89,27367,12.75,73574.0,-1.15,-15.95,-10.97,0,*55
1507150974.16,27368,12.69,73568.5,-1.15,-15.85,-11.07,0,*53
1507150975.39,27369,12.75,73572.5,-1.15,-15.81,-11.11,0,*51
1507150976.6,27370,12.75,73572.5,-1.15,-15.75,-11.11,0,*52
1507150977.82,27371,12.75,73576.0,-1.15,-15.75,-11.11,0,*53
1507150979.03,27372,12.69,73576.0,-1.15,-15.67,-11.11,0,*53
1507150980.23,27373,12.75,73580.8,-1.17,-15.71,-11.11,0,*57
1507150981.44,27374,12.75,73584.5,-1.15,-15.63,-11.19,0,*59
1507150982.65,27375,12.75,73580.8,-1.15,-15.53,-11.19,0,*5B
1507150983.87,27376,12.69,73580.0,-1.17,-15.53,-11.33,0,*52
1507150985.1,27377,12.75,73586.5,-1.15,-15.49,-11.37,0,*5E
1507150986.31,27378,12.69,73578.0,-1.17,-15.53,-11.41,0,*59
1507150987.51,27379,12.75,73584.3,-1.17,-15.53,-11.45,0,*5C
1507150988.74,27380,12.75,73584.3,-1.17,-15.53,-11.55,0,*5B
1507150989.94,27381,12.75,73588.0,-1.17,-15.53,-11.45,0,*5B
1507150991.17,27382,12.75,73588.8,-1.17,-15.43,-11.45,0,*59
1507150992.4,27383,12.75,73580.0,-1.17,-15.39,-11.45,0,*55
1507150993.67,27384,12.75,73576.5,-1.19,-15.43,-11.59,0,*5C
1507150994.95,27385,12.69,73594.0,-1.19,-15.43,-11.59,0,*5D
1507150996.23,27386,12.75,73596.3,-1.19,-15.39,-11.59,0,*53
1507150997.51,27387,12.69,73594.0,-1.19,-15.43,-11.67,0,*52
1507150998.79,27388,12.75,73602.0,-1.19,-15.39,-11.59,0,*5D
1507151000.04,27389,12.69,73592.0,-1.19,-15.29,-11.67,0,*50
1507151001.29,27390,12.75,73596.8,-1.21,-15.35,-11.73,0,*5B
1507151002.52,27391,12.75,73604.0,-1.21,-15.49,-11.73,0,*51
1507151003.79,27392,12.75,73592.5,-1.19,-15.43,-11.81,0,*5E
1507151005.07,27393,12.69,73590.5,-1.19,-15.39,-11.81,0,*52
1507151006.3,27394,12.69,73592.8,-1.21,-15.49,-11.89,0,*51
1507151007.56,27395,12.75,73586.8,-1.21,-15.43,-11.89,0,*5A
1507151008.79,27396,12.69,73582.0,-1.21,-15.43,-12.03,0,*58
1507151010.07,27397,12.75,73594.5,-1.19,-15.43,-11.97,0,*5C
1507151011.29,27398,12.69,73588.8,-1.21,-15.57,-12.03,0,*53
1507151012.53,27399,12.69,73596.8,-1.21,-15.53,-12.07,0,*52
1507151013.78,27400,12.69,73592.8,-1.21,-15.57,-12.11,0,*56
1507151015.01,27401,12.75,73596.3,-1.21,-15.63,-12.15,0,*54
1507151016.21,27402,12.75,73592.8,-1.21,-15.63,-12.21,0,*50
1507151017.42,27403,12.75,73592.0,-1.21,-15.75,-12.29,0,*5E
1507151018.65,27404,12.69,73586.0,-1.21,-15.71,-12.15,0,*52
1507151019.88,27405,12.75,73584.3,-1.21,-15.63,-12.15,0,*50
1507151021.11,27406,12.75,73582.0,-1.23,-15.67,-12.21,0,*52
1507151022.34,27407,12.69,73580.8,-1.23,-15.67,-12.21,0,*53
1507151023.58,27408,12.69,73582.0,-1.23,-15.75,-12.25,0,*5B
1507151024.82,27409,12.69,73584.5,-1.23,-15.75,-12.21,0,*5E
1507151026.05,27410,12.75,73590.8,-1.23,-15.75,-12.25,0,*52
1507151027.3,27411,12.69,73576.0,-1.23,-15.81,-12.25,0,*58
1507151028.54,27412,12.75,73594.3,-1.23,-15.75,-12.25,0,*50
1507151029.76,27413,12.75,73592.0,-1.25,-15.81,-12.21,0,*58
1507151030.97,27414,12.75,73596.3,-1.25,-15.75,-12.21,0,*54
1507151032.23,27415,12.69,73592.8,-1.23,-15.75,-12.07,0,*57
1507151033.46,27416,12.69,73598.5,-1.25,-15.75,-12.15,0,*51
1507151034.71,27417,12.69,73594.8,-1.25,-15.81,-12.07,0,*58
1507151035.96,27418,12.75,73600.3,-1.25,-15.89,-12.15,0,*5C
1507151037.19,27419,12.75,73602.3,-1.25,-15.75,-12.07,0,*5D
1507151038.42,27420,12.69,73596.0,-1.25,-15.75,-12.07,0,*57
1507151039.68,27421,12.75,73592.8,-1.25,-15.81,-12.07,0,*5D
1507151040.91,27422,12.75,73592.5,-1.25,-15.75,-12.07,0,*55
1507151042.14,27423,12.75,73592.0,-1.25,-15.67,-11.93,0,*59
1507151043.34,27424,12.75,73594.5,-1.25,-15.75,-12.03,0,*57
1507151044.58,27425,12.75,73598.0,-1.23,-15.75,-12.03,0,*50
1507151045.83,27426,12.69,73598.0,-1.27,-15.67,-11.97,0,*5A
1507151047.11,27427,12.75,73600.0,-1.27,-15.81,-11.97,0,*53
1507151048.37,27428,12.75,73600.3,-1.27,-15.71,-11.93,0,*57
1507151049.59,27429,12.75,73602.5,-1.25,-15.67,-11.81,0,*50
1507151050.87,27430,12.69,73596.0,-1.27,-15.85,-11.85,0,*52
1507151052.1,27431,12.75,73602.0,-1.25,-15.75,-11.81,0,*5A
1507151053.34,27432,12.69,73602.0,-1.25,-15.81,-11.81,0,*52
1507151054.59,27433,12.75,73608.3,-1.25,-15.81,-11.89,0,*5B
1507151055.82,27434,12.75,73604.3,-1.25,-15.67,-11.67,0,*54
1507151057.08,27435,12.75,73596.5,-1.27,-15.53,-11.55,0,*51
1507151058.31,27436,12.75,73596.3,-1.27,-15.25,-11.15,0,*57
1507151059.51,27437,12.69,73584.0,-1.25,-14.89,-10.85,0,*5B
1507151060.7,27438,12.75,73592.3,-1.25,-15.11,-11.11,0,*58
1507151061.93,27439,12.69,73580.3,-1.25,-15.35,-11.11,0,*5F
1507151063.18,27440,12.75,73572.8,-1.23,-15.35,-11.19,0,*5F
1507151064.44,27441,12.69,73574.5,-1.23,-14.89,-10.67,0,*50
1507151065.67,27442,12.75,73570.3,-1.23,-15.07,-10.85,0,*58
1507151066.92,27443,12.75,73564.5,-1.23,-15.21,-10.93,0,*5A
1507151068.19,27444,12.75,73558.0,-1.23,-14.97,-10.71,0,*5D
1507151069.46,27445,12.75,73528.0,-1.19,-15.01,-10.71,0,*5B
1507151070.74,27446,12.75,73500.0,-1.19,-14.97,-10.63,0,*55
1507151071.99,27447,12.75,73530.0,-1.19,-14.79,-10.57,0,*53
1507151073.22,27448,12.75,73524.8,-1.19,-14.89,-10.57,0,*53
1507151074.48,27449,12.69,73510.5,-1.19,-14.79,-10.27,0,*5A
1507151075.68,27450,12.75,73534.3,-1.17,-14.89,-10.57,0,*54
1507151076.91,27451,12.75,73548.3,-1.15,-14.97,-10.53,0,*5C
1507151078.13,27452,12.75,73554.0,-1.17,-15.01,-10.57,0,*57
1507151079.38,27453,12.75,73558.0,-1.17,-14.93,-10.71,0,*58
1507151080.62,27454,12.75,73566.0,-1.15,-15.25,-10.79,0,*59
1507151081.83,27455,12.75,73554.5,-1.15,-15.11,-10.57,0,*53
1507151083.06,27456,12.69,73560.8,-1.15,-15.11,-10.67,0,*53
1507151084.32,27457,12.75,73562.5,-1.15,-15.35,-10.71,0,*53
1507151085.58,27458,12.75,73554.3,-1.15,-15.21,-10.71,0,*59
1507151086.79,27459,12.69,73558.0,-1.15,-15.07,-10.57,0,*58
1507151088.0,27460,12.75,73578.3,-1.15,-15.07,-10.57,0,*52
1507151089.23,27461,12.75,73570.3,-1.13,-15.11,-10.57,0,*52
1507151090.49,27462,12.75,73566.8,-1.13,-14.93,-10.53,0,*5E
1507151091.72,27463,12.75,73578.0,-1.13,-15.07,-10.53,0,*53
1507151092.98,27464,12.75,73586.8,-1.13,-15.11,-10.67,0,*54
1507151094.21,27465,12.75,73586.8,-1.11,-15.01,-10.53,0,*51
1507151095.47,27466,12.75,73590.8,-1.13,-15.07,-10.71,0,*56
1507151096.75,27467,12.75,73586.5,-1.13,-15.21,-10.79,0,*5B
1507151098.01,27468,12.75,73564.0,-1.13,-15.07,-10.71,0,*58
1507151099.26,27469,12.75,73560.8,-1.11,-14.93,-10.63,0,*54
1507151100.55,27470,12.69,73552.0,-1.13,-14.97,-10.67,0,*5E
1507151101.83,27471,12.75,73562.3,-1.13,-14.93,-10.71,0,*5C
1507151103.08,27472,12.75,73568.0,-1.13,-14.97,-10.85,0,*50
1507151104.31,27473,12.75,73566.3,-1.13,-15.11,-10.89,0,*52
1507151105.54,27474,12.75,73576.5,-1.13,-15.07,-10.93,0,*59
1507151106.77,27475,12.75,73572.3,-1.13,-15.07,-10.93,0,*58
1507151107.98,27476,12.75,73572.5,-1.11,-15.07,-10.89,0,*52
1507151109.2,27477,12.75,73568.5,-1.11,-15.01,-10.89,0,*55
1507151110.45,27478,12.75,73566.0,-1.13,-14.97,-10.85,0,*5A
1507151111.7,27479,12.75,73568.5,-1.13,-14.97,-10.85,0,*5B
1507151112.95,27480,12.75,73576.8,-1.13,-14.97,-10.85,0,*5D
1507151114.2,27481,12.75,73578.0,-1.13,-14.93,-10.85,0,*58
1507151115.45,27482,12.75,73568.0,-1.13,-14.93,-10.85,0,*5B
1507151116.7,27483,12.75,73566.5,-1.13,-14.97,-10.85,0,*5E
1507151117.93,27484,12.75,73570.3,-1.13,-15.07,-10.93,0,*56
1507151119.15,27485,12.75,73570.0,-1.13,-15.11,-10.85,0,*57
1507151120.36,27486,12.75,73566.8,-1.15,-15.07,-10.85,0,*55
1507151121.59,27487,12.75,73560.0,-1.15,-15.07,-10.71,0,*5F
1507151122.85,27488,12.75,73562.3,-1.13,-14.75,-10.53,0,*52
1507151124.08,27489,12.75,73570.8,-1.13,-14.65,-10.53,0,*52
1507151125.33,27490,12.75,73550.8,-1.13,-14.37,-10.15,0,*5F
1507151126.56,27491,12.75,73568.5,-1.13,-14.37,-10.23,0,*5B
1507151127.78,27492,12.75,73576.3,-1.11,-14.61,-10.35,0,*5E
1507151128.99,27493,12.75,73574.5,-1.11,-14.61,-10.23,0,*58
1507151130.23,27494,12.75,73576.0,-1.11,-14.55,-10.35,0,*5F
1507151131.47,27495,12.75,73566.5,-1.11,-14.43,-10.19,0,*57
1507151132.71,27496,12.75,73568.0,-1.11,-14.43,-10.05,0,*59
1507151133.98,27497,12.75,73578.3,-1.13,-14.51,-10.23,0,*5D
1507151135.18,27498,12.75,73562.5,-1.11,-14.29,-10.05,0,*5B
1507151136.42,27499,12.75,73560.3,-1.07,-14.19,-9.83,0,*68
1507151137.66,27500,12.75,73566.8,-1.07,-14.43,-10.09,0,*5C
1507151138.91,27501,12.75,73574.8,-1.07,-14.47,-10.05,0,*55
1507151140.17,27502,12.75,73570.0,-1.05,-14.51,-10.05,0,*53
1507151141.43,27503,12.75,73570.5,-1.05,-14.43,-10.05,0,*51
1507151142.69,27504,12.75,73562.3,-1.05,-14.43,-10.01,0,*52
1507151143.96,27505,12.75,73558.8,-1.05,-14.51,-10.15,0,*55
1507151145.17,27506,12.75,73552.0,-1.07,-14.69,-10.23,0,*5A
1507151146.41,27507,12.69,73560.0,-1.07,-14.79,-10.27,0,*5E
1507151147.63,27508,12.75,73570.8,-1.07,-14.89,-10.35,0,*5D
1507151148.84,27509,12.75,73562.8,-1.07,-14.65,-10.15,0,*5C
1507151150.08,27510,12.75,73566.8,-1.05,-14.65,-10.15,0,*56
1507151151.31,27511,12.75,73574.8,-1.05,-14.69,-10.15,0,*5B
1507151152.57,27512,12.75,73570.0,-1.05,-14.83,-10.15,0,*5C
1507151153.81,27513,12.75,73568.5,-1.05,-14.89,-10.19,0,*5B
1507151155.04,27514,12.75,73572.3,-1.07,-14.93,-10.23,0,*5C
1507151156.28,27515,12.75,73578.0,-1.05,-14.89,-10.15,0,*51
1507151157.52,27516,12.75,73582.3,-1.05,-14.89,-10.15,0,*52
1507151158.75,27517,12.75,73584.5,-1.07,-15.01,-10.09,0,*5D
1507151159.96,27518,12.75,73580.0,-1.07,-14.89,-10.05,0,*5F
1507151161.19,27519,12.75,73582.8,-1.07,-15.01,-10.05,0,*5F
1507151162.41,27520,12.75,73578.0,-1.07,-15.01,-10.05,0,*55
1507151163.64,27521,12.75,73578.3,-1.07,-15.01,-9.93,0,*63
1507151164.89,27522,12.75,73584.8,-1.07,-15.01,-9.83,0,*61
1507151166.11,27523,12.75,73578.3,-1.07,-15.01,-9.79,0,*65
1507151167.34,27524,12.75,73572.8,-1.07,-15.01,-9.79,0,*62
1507151168.56,27525,12.75,73572.8,-1.07,-15.01,-9.79,0,*63
1507151169.77,27526,12.75,73574.5,-1.07,-14.89,-9.67,0,*6E
1507151170.99,27527,12.75,73570.3,-1.07,-14.89,-9.57,0,*6C
1507151172.23,27528,12.75,73582.3,-1.07,-14.89,-9.45,0,*60
1507151173.46,27529,12.75,73584.0,-1.07,-14.89,-9.41,0,*65
1507151174.71,27530,12.75,73566.5,-1.07,-14.79,-9.37,0,*63
1507151175.94,27531,12.75,73564.8,-1.07,-14.75,-9.27,0,*6F
1507151177.16,27532,12.75,73576.8,-1.05,-14.69,-9.19,0,*6E
1507151178.41,27533,12.75,73584.3,-1.07,-14.75,-9.15,0,*6C
1507151179.61,27534,12.75,73576.0,-1.07,-14.61,-9.01,0,*6B
1507151180.82,27535,12.75,73574.5,-1.07,-14.61,-9.01,0,*6A
1507151182.03,27536,12.75,73586.8,-1.07,-14.61,-8.89,0,*68
1507151183.23,27537,12.75,73590.0,-1.07,-14.61,-8.89,0,*69
1507151184.47,27538,12.75,73592.8,-1.07,-14.55,-8.85,0,*6D
1507151185.71,27539,12.75,73594.0,-1.07,-14.47,-8.75,0,*60
1507151186.94,27540,12.75,73588.3,-1.07,-14.47,-8.63,0,*69
1507151188.16,27541,12.75,73572.3,-1.11,-14.43,-8.59,0,*62
1507151189.36,27542,12.75,73576.0,-1.11,-14.33,-8.59,0,*66
1507151190.56,27543,12.75,73588.0,-1.11,-14.33,-8.55,0,*6B
1507151191.78,27544,12.75,73594.5,-1.13,-14.33,-8.59,0,*62
1507151192.99,27545,12.75,73596.0,-1.11,-14.19,-8.41,0,*60
1507151194.2,27546,12.75,73590.0,-1.11,-14.15,-8.33,0,*6A
1507151195.43,27547,12.75,73598.0,-1.11,-14.05,-8.33,0,*6A
1507151196.63,27548,12.75,73596.5,-1.11,-13.93,-8.21,0,*6E
1507151197.88,27549,12.75,73586.5,-1.13,-13.87,-8.17,0,*6D
1507151199.14,27550,12.75,73572.5,-1.11,-13.83,-8.07,0,*62
1507151200.41,27551,12.75,73574.8,-1.11,-13.83,-8.07,0,*63
1507151201.68,27552,12.75,73578.8,-1.07,-13.83,-8.07,0,*67
1507151202.92,27553,12.75,73572.0,-1.07,-13.73,-8.07,0,*69
1507151204.14,27554,12.75,73570.8,-1.07,-13.55,-7.95,0,*6E
1507151205.38,27555,12.75,73560.8,-1.07,-13.55,-7.91,0,*6B
1507151206.6,27556,12.75,73562.8,-1.11,-13.43,-7.91,0,*68
1507151207.83,27557,12.75,73560.5,-1.11,-13.43,-7.91,0,*69
1507151209.08,27558,12.75,73568.0,-1.11,-13.33,-7.91,0,*61
1507151210.34,27559,12.75,73568.3,-1.11,-13.29,-7.91,0,*6B
1507151211.57,27560,12.75,73574.0,-1.11,-13.29,-7.83,0,*62
1507151212.8,27561,12.75,73578.5,-1.11,-13.19,-7.91,0,*63
1507151214.03,27562,12.75,73582.5,-1.11,-13.19,-7.91,0,*60
1507151215.26,27563,12.75,73580.3,-1.11,-13.07,-7.91,0,*6E
1507151216.51,27564,12.75,73580.3,-1.11,-13.01,-7.95,0,*6B
1507151217.74,27565,12.75,73582.5,-1.11,-12.89,-7.91,0,*6F
1507151218.96,27566,12.75,73590.0,-1.11,-12.89,-7.95,0,*68
1507151220.22,27567,12.75,73592.5,-1.13,-12.93,-7.95,0,*60
1507151221.47,27568,12.75,73586.3,-1.11,-12.75,-7.95,0,*65
1507151222.72,27569,12.75,73586.0,-1.11,-12.71,-7.91,0,*64
1507151223.97,27570,12.75,73592.8,-1.11,-12.61,-7.95,0,*69
1507151225.24,27571,12.75,73576.0,-1.13,-12.65,-7.95,0,*6E
1507151226.49,27572,12.75,73572.5,-1.11,-12.57,-7.95,0,*6E
1507151227.78,27573,12.75,73574.8,-1.13,-12.53,-8.07,0,*6D
1507151229.01,27574,12.75,73584.0,-1.11,-12.47,-8.03,0,*69
1507151230.27,27575,12.75,73584.0,-1.13,-12.47,-8.07,0,*6E
1507151231.53,27576,12.75,73594.3,-1.13,-12.39,-8.07,0,*64
1507151232.78,27577,12.75,73594.5,-1.13,-12.39,-8.11,0,*62
1507151234.01,27578,12.75,73602.3,-1.11,-12.21,-8.03,0,*65
1507151235.27,27579,12.75,73602.3,-1.11,-12.35,-8.07,0,*65
1507151236.5,27580,12.75,73596.0,-1.11,-12.29,-8.03,0,*6A
1507151237.76,27581,12.75,73592.3,-1.11,-12.35,-8.07,0,*62
1507151238.96,27582,12.75,73578.5,-1.11,-12.43,-8.21,0,*64
1507151240.19,27583,12.75,73572.0,-1.13,-12.47,-8.25,0,*67
1507151241.41,27584,12.75,73572.8,-1.11,-12.35,-8.29,0,*6B
1507151242.64,27585,12.75,73554.8,-1.11,-12.35,-8.17,0,*67
1507151243.86,27586,12.75,73554.3,-1.13,-12.39,-8.25,0,*6B
1507151245.09,27587,12.75,73548.3,-1.13,-12.47,-8.33,0,*64
1507151246.34,27588,12.75,73550.8,-1.13,-12.35,-8.25,0,*69
1507151247.57,27589,12.75,73552.3,-1.13,-12.25,-8.21,0,*6D
1507151248.84,27590,12.75,73546.3,-1.13,-12.21,-8.11,0,*62
1507151250.12,27591,12.75,73558.5,-1.13,-12.11,-7.99,0,*6F
1507151251.4,27592,12.75,73560.5,-1.13,-12.11,-7.99,0,*6C
1507151252.62,27593,12.75,73562.3,-1.11,-12.03,-7.95,0,*60
1507151253.88,27594,12.75,73554.0,-1.11,-12.15,-8.07,0,*64
1507151255.16,27595,12.75,73548.0,-1.13,-12.11,-8.11,0,*64
1507151256.39,27596,12.75,73556.0,-1.11,-12.03,-7.91,0,*61
1507151257.64,27597,12.75,73560.3,-1.13,-12.03,-7.95,0,*66
1507151258.87,27598,12.75,73560.0,-1.11,-11.93,-7.83,0,*66
1507151260.13,27599,12.75,73570.3,-1.13,-11.89,-7.83,0,*6E
1507151261.4,27600,12.75,73568.0,-1.13,-11.93,-7.83,0,*66
1507151262.65,27601,12.75,73574.3,-1.13,-11.89,-7.87,0,*68
1507151263.91,27602,12.75,73576.0,-1.13,-11.89,-7.87,0,*6B
1507151265.19,27603,12.75,73580.3,-1.13,-11.89,-7.95,0,*69
1507151266.44,27604,12.75,73580.5,-1.13,-11.81,-7.87,0,*65
1507151267.72,27605,12.75,73584.5,-1.13,-11.89,-7.99,0,*63
1507151268.97,27606,12.75,73584.0,-1.11,-11.85,-7.95,0,*62
1507151270.24,27607,12.75,73590.0,-1.13,-11.81,-7.95,0,*65
1507151271.52,27608,12.75,73584.3,-1.13,-11.77,-7.99,0,*6F
1507151272.8,27609,12.75,73584.0,-1.13,-11.77,-7.99,0,*6E
1507151274.08,27610,12.75,73580.0,-1.13,-11.67,-7.99,0,*67
1507151275.36,27611,12.75,73576.8,-1.13,-11.77,-8.11,0,*68
1507151276.64,27612,12.75,73580.5,-1.13,-11.63,-8.11,0,*6E
1507151277.9,27613,12.75,73580.3,-1.15,-11.67,-8.11,0,*6D
1507151279.13,27614,12.75,73582.0,-1.15,-11.63,-8.25,0,*69
1507151280.39,27615,12.75,73576.0,-1.13,-11.63,-8.21,0,*6A
1507151281.64,27616,12.75,73580.3,-1.13,-11.51,-8.21,0,*68
1507151282.9,27617,12.75,73584.3,-1.13,-11.55,-8.21,0,*6D
1507151284.15,27618,12.75,73580.3,-1.13,-11.51,-8.25,0,*62
1507151285.37,27619,12.75,73582.8,-1.15,-11.55,-8.33,0,*66
1507151286.61,27620,12.75,73588.5,-1.15,-11.55,-8.45,0,*6D
1507151287.88,27621,12.75,73584.0,-1.13,-11.51,-8.51,0,*6B
1507151289.14,27622,12.75,73590.8,-1.15,-11.55,-8.51,0,*6A
1507151290.39,27623,12.75,73584.5,-1.15,-11.51,-8.51,0,*6F
1507151291.62,27624,12.75,73588.3,-1.15,-11.51,-8.59,0,*60
1507151292.84,27625,12.75,73588.0,-1.17,-11.59,-8.71,0,*61
1507151294.07,27626,12.75,73588.5,-1.15,-11.55,-8.75,0,*68
1507151295.29,27627,12.75,73592.3,-1.15,-11.55,-8.75,0,*69
1507151296.52,27628,12.75,73590.0,-1.15,-11.51,-8.89,0,*61
1507151297.76,27629,12.75,73590.0,-1.15,-11.63,-8.89,0,*61
1507151298.98,27630,12.75,73586.8,-1.17,-11.67,-8.93,0,*64
1507151300.22,27631,12.75,73580.3,-1.15,-11.63,-9.01,0,*69